This is the latest recevied weather packets stored in our database for station/object W4DHW-4. If no packets are shown the sender has not sent any weather packets the latest 10 day(s).
| Time | Temp. | Humidity | Pressure | Rain* | Wind** | Luminosity | Snow |
|---|---|---|---|---|---|---|---|
| 1777992103 | 22.78° C | 48% | 1015.1 hPa | 0 mm | - | 743 W/m² | - |
| 1777991800 | 22.78° C | 47% | 1015.2 hPa | 0 mm | - | 784 W/m² | - |
| 1777991497 | 22.22° C | 50% | 1015.1 hPa | 0 mm | - | 767 W/m² | - |
| 1777991194 | 22.22° C | 49% | 1015.2 hPa | 0 mm | - | 741 W/m² | - |
| 1777990892 | 21.67° C | 51% | 1015.3 hPa | 0 mm | - | 768 W/m² | - |
| 1777990589 | 21.67° C | 52% | 1015 hPa | 0 mm | - | 752 W/m² | - |
| 1777989982 | 20.56° C | 55% | 1015.1 hPa | 0 mm | - | 719 W/m² | - |
| 1777989679 | 20.56° C | 56% | 1015.4 hPa | 0 mm | - | 700 W/m² | - |
| 1777989375 | 20° C | 55% | 1015.2 hPa | 0 mm | - | 651 W/m² | - |
| 1777989072 | 20° C | 57% | 1015.2 hPa | 0 mm | - | 632 W/m² | - |
| 1777988767 | 20° C | 58% | 1015.5 hPa | 0 mm | - | 647 W/m² | - |
| 1777988465 | 19.44° C | 60% | 1015.1 hPa | 0 mm | - | 467 W/m² | - |
| 1777988162 | 19.44° C | 61% | 1015.2 hPa | 0 mm | - | 235 W/m² | - |
| 1777987858 | 18.33° C | 61% | 1015.3 hPa | 0 mm | - | 541 W/m² | - |
| 1777987554 | 18.33° C | 63% | 1015.2 hPa | 0 mm | - | 502 W/m² | - |
| 1777987252 | 18.89° C | 64% | 1015.2 hPa | 0 mm | - | 475 W/m² | - |
| 1777986948 | 17.78° C | 66% | 1015.1 hPa | 0 mm | - | 460 W/m² | - |
| 1777986647 | 17.78° C | 68% | 1015.1 hPa | 0 mm | - | 434 W/m² | - |
| 1777986344 | 17.22° C | 70% | 1015.1 hPa | 0 mm | - | 402 W/m² | - |
| 1777986043 | 16.67° C | 71% | 1015.2 hPa | 0 mm | - | 370 W/m² | - |
| 1777985739 | 15.56° C | 75% | 1015.1 hPa | 0 mm | - | 350 W/m² | - |
| 1777985436 | 15.56° C | 76% | 1015 hPa | 0 mm | - | 355 W/m² | - |
| 1777985132 | 15.56° C | 74% | 1015.3 hPa | 0 mm | - | 352 W/m² | - |
| 1777984829 | 15° C | 75% | 1015.2 hPa | 0 mm | - | 331 W/m² | - |
| 1777984525 | 15° C | 76% | 1015.4 hPa | 0 mm | - | 312 W/m² | - |
* Rain latest hour (hover to see other rain measurements)
** Current wind speed in m/s (hover to see current wind gust speed)